This is the latest recevied weather packets stored in our database for station/object WE0DX-1. If no packets are shown the sender has not sent any weather packets the latest 10 day(s).
| Time | Temp. | Humidity | Pressure | Rain* | Wind** | Luminosity | Snow |
|---|---|---|---|---|---|---|---|
| 1777391121 | 10° C | 80% | 1017.1 hPa | 0 mm | - | 235 W/m² | - |
| 1777390817 | 10° C | 79% | 1017 hPa | 0 mm | - | 211 W/m² | - |
| 1777390515 | 10° C | 80% | 1017.2 hPa | 0 mm | - | 183 W/m² | - |
| 1777390210 | 10° C | 80% | 1017.3 hPa | 0 mm | - | 154 W/m² | - |
| 1777389907 | 10° C | 79% | 1017 hPa | 0 mm | - | 204 W/m² | - |
| 1777389604 | 9.44° C | 81% | 1016.8 hPa | 0 mm | - | 160 W/m² | - |
| 1777389300 | 9.44° C | 81% | 1017.1 hPa | 0 mm | - | 133 W/m² | - |
| 1777388998 | 10° C | 81% | 1017.2 hPa | 0 mm | - | 138 W/m² | - |
| 1777388695 | 9.44° C | 81% | 1017.5 hPa | 0 mm | - | 121 W/m² | - |
| 1777388391 | 9.44° C | 81% | 1017.4 hPa | 0 mm | - | 103 W/m² | - |
| 1777388091 | 9.44° C | 81% | 1017.4 hPa | 0 mm | - | 100 W/m² | - |
| 1777387788 | 9.44° C | 82% | 1017.4 hPa | 0 mm | - | 107 W/m² | - |
| 1777387484 | 9.44° C | 83% | 1017.7 hPa | 0 mm | - | 106 W/m² | - |
| 1777387179 | 9.44° C | 82% | 1018 hPa | 0 mm | - | 92 W/m² | - |
| 1777386875 | 9.44° C | 82% | 1017.9 hPa | 0 mm | - | 73 W/m² | - |
| 1777386572 | 9.44° C | 82% | 1018.1 hPa | 0 mm | - | 72 W/m² | - |
| 1777386269 | 9.44° C | 82% | 1018.2 hPa | 0 mm | - | 72 W/m² | - |
| 1777385967 | 9.44° C | 82% | 1018.4 hPa | 0 mm | - | 58 W/m² | - |
| 1777385663 | 9.44° C | 82% | 1018.2 hPa | 0 mm | - | 61 W/m² | - |
| 1777385360 | 9.44° C | 82% | 1017.8 hPa | 0 mm | - | 62 W/m² | - |
| 1777385057 | 9.44° C | 82% | 1017.8 hPa | 0 mm | - | 56 W/m² | - |
| 1777384754 | 8.89° C | 82% | 1017.7 hPa | 0 mm | - | 63 W/m² | - |
| 1777384448 | 8.89° C | 83% | 1017.8 hPa | 0 mm | - | 60 W/m² | - |
| 1777384144 | 8.89° C | 84% | 1018 hPa | 0 mm | - | 50 W/m² | - |
| 1777383841 | 8.89° C | 83% | 1017.9 hPa | 0 mm | - | 42 W/m² | - |
* Rain latest hour (hover to see other rain measurements)
** Current wind speed in m/s (hover to see current wind gust speed)